FW6034 Truro MA US current weather conditions

sailwx.info

Wind from 273 at 17 knots gusting 27

Air temperature 6.1° C
Dewpoint -2.3° C

Last reported at 2019-Dec-15 21:06 UTC.
Time now 2019-Dec-15 21:54 UTC

Location: N 41°59' W 070°01'.
View on Google Maps.

See reports from other nearby stations

  
Tides and Currents Weather Stations Pressure Air Temp Water Temp Dewpoint Dewpoint Depression Visibility Wind Speed Wind Dir Waves Ship Positions
date/time (UTC)wind fromknots sea level pressurealtimeterstation pressurevisibilityair tempwater tempwave heightnotes
2019-Dec-15 21:06 273 17 gusting 27 6.1
2019-Dec-15 21:01 277 13 gusting 26 6.1
2019-Dec-15 20:56 273 14 gusting 27 6.1
2019-Dec-15 20:51 267 10 gusting 22 6.7
2019-Dec-15 20:46 269 13 gusting 24 6.7
2019-Dec-15 20:41 267 17 gusting 26 6.7
2019-Dec-15 20:36 269 13 gusting 24 6.7
2019-Dec-15 20:31 265 16 gusting 26 6.7
2019-Dec-15 20:26 261 12 gusting 21 6.7
2019-Dec-15 20:21 257 13 gusting 29 6.7
2019-Dec-15 20:16 257 13 gusting 26 6.7
2019-Dec-15 20:11 257 15 gusting 25 6.7
2019-Dec-15 20:07 263 12 gusting 23 6.7
2019-Dec-15 20:02 269 14 gusting 25 6.7
2019-Dec-15 19:57 267 13 gusting 22 6.7
2019-Dec-15 19:52 271 15 gusting 28 7.2
2019-Dec-15 19:47 273 19 gusting 33 7.2
2019-Dec-15 19:42 269 15 gusting 25 7.2
2019-Dec-15 19:37 277 13 gusting 28 7.2
2019-Dec-15 19:32 275 19 gusting 29 7.2
2019-Dec-15 19:27 257 18 gusting 30 7.2
2019-Dec-15 19:22 267 17 gusting 33 7.2
2019-Dec-15 19:17 257 18 gusting 26 7.2
2019-Dec-15 19:12 253 13 gusting 26 7.2
2019-Dec-15 19:07 257 14 gusting 26 7.2
2019-Dec-15 19:02 255 14 gusting 23 7.2
2019-Dec-15 18:57 267 15 gusting 23 7.2
2019-Dec-15 18:52 267 13 gusting 28 7.2
2019-Dec-15 18:46 263 13 gusting 28 7.2
2019-Dec-15 18:41 267 19 gusting 26 7.2
2019-Dec-15 18:36 259 15 gusting 26 7.2
2019-Dec-15 18:31 261 16 gusting 25 7.2
2019-Dec-15 18:26 259 17 gusting 27 7.2
2019-Dec-15 18:21 265 13 gusting 30 7.2
2019-Dec-15 18:16 267 19 gusting 30 7.8
2019-Dec-15 18:11 259 16 gusting 29 7.8
2019-Dec-15 18:06 267 19 gusting 33 7.8
2019-Dec-15 18:01 269 11 gusting 26 7.2
2019-Dec-15 17:56 257 17 gusting 26 7.2
2019-Dec-15 17:52 267 12 gusting 19 7.2
2019-Dec-15 17:47 265 11 gusting 19 7.2
2019-Dec-15 17:42 273 10 gusting 22 7.2
2019-Dec-15 17:38 269 13 gusting 21 7.8
2019-Dec-15 17:33 263 13 gusting 27 7.8
2019-Dec-15 17:28 263 15 gusting 26 7.8
2019-Dec-15 17:23 277 12 gusting 26 7.8
2019-Dec-15 17:18 279 13 gusting 28 7.8
2019-Dec-15 17:13 269 15 gusting 26 8.3
2019-Dec-15 17:08 275 17 gusting 25 8.3
2019-Dec-15 17:03 269 16 gusting 25 8.3
2019-Dec-15 16:58 271 15 gusting 27 8.3
2019-Dec-15 16:53 273 19 gusting 31 8.3
2019-Dec-15 16:48 269 18 gusting 33 7.8
2019-Dec-15 16:43 271 18 gusting 31 7.8
2019-Dec-15 16:38 275 17 gusting 27 7.8
2019-Dec-15 16:33 271 14 gusting 26 7.8
2019-Dec-15 16:28 271 16 gusting 29 7.8
2019-Dec-15 16:23 275 19 gusting 33 7.8
2019-Dec-15 16:18 271 20 gusting 36 7.8
2019-Dec-15 16:13 275 19 gusting 35 7.8
2019-Dec-15 16:08 259 17 gusting 32 7.8
2019-Dec-15 16:03 267 17 gusting 34 7.8
2019-Dec-15 15:58 275 16 gusting 29 7.2
2019-Dec-15 15:53 259 15 gusting 36 7.2
2019-Dec-15 15:48 271 23 gusting 33 7.2
2019-Dec-15 15:43 263 17 gusting 32 7.2
2019-Dec-15 15:38 269 15 gusting 33 6.7
2019-Dec-15 15:33 269 21 gusting 36 6.7
2019-Dec-15 15:29 267 23 gusting 34 6.7
2019-Dec-15 15:24 273 19 gusting 35 7.2
2019-Dec-15 15:19 273 19 gusting 36 7.2
2019-Dec-15 15:14 273 18 gusting 38 7.2
2019-Dec-15 15:09 267 19 gusting 33 7.2
2019-Dec-15 15:04 273 21 gusting 37 7.2
2019-Dec-15 14:59 261 19 gusting 39 7.2
2019-Dec-15 14:54 269 20 gusting 38 7.2
2019-Dec-15 14:49 273 24 gusting 33 7.2
2019-Dec-15 14:44 263 16 gusting 36 7.2
2019-Dec-15 14:39 261 16 gusting 32 7.2
2019-Dec-15 14:34 265 14 gusting 30 6.7
2019-Dec-15 14:29 271 19 gusting 39 6.7
2019-Dec-15 14:24 265 15 gusting 33 6.7
2019-Dec-15 14:19 259 22 gusting 33 6.7
2019-Dec-15 14:14 267 18 gusting 33 6.7
2019-Dec-15 14:09 259 19 gusting 31 6.7
2019-Dec-15 14:04 263 13 gusting 30 6.7
2019-Dec-15 13:59 261 19 gusting 28 6.7
2019-Dec-15 13:54 255 18 gusting 29 6.1
2019-Dec-15 13:49 257 14 gusting 31 6.1
2019-Dec-15 13:44 259 17 gusting 26 6.1
2019-Dec-15 13:39 251 13 gusting 32 6.1
2019-Dec-15 13:34 261 16 gusting 27 5.6
2019-Dec-15 13:29 243 18 gusting 29 5.6
2019-Dec-15 13:24 249 16 gusting 34 5.6
2019-Dec-15 13:19 251 14 gusting 26 5.6
2019-Dec-15 13:15 251 19 gusting 28 5.6
2019-Dec-15 13:10 257 16 gusting 28 5.6
2019-Dec-15 13:05 257 16 gusting 31 5.6
2019-Dec-15 13:00 251 15 gusting 29 5.6
2019-Dec-15 12:55 247 16 gusting 28 5.6
2019-Dec-15 12:50 255 16 gusting 29 5.6
2019-Dec-15 12:45 249 16 gusting 26 5.6
2019-Dec-15 12:40 243 15 gusting 29 5.6
2019-Dec-15 12:30 245 13 gusting 27 5.6
2019-Dec-15 12:25 249 16 gusting 30 6.1
2019-Dec-15 12:20 249 16 gusting 31 5.6
2019-Dec-15 12:15 263 15 gusting 27 5.6
2019-Dec-15 12:10 261 12 gusting 31 5.6
2019-Dec-15 12:05 259 17 gusting 26 5.6
2019-Dec-15 12:00 263 15 gusting 27 5.6
2019-Dec-15 11:55 247 14 gusting 29 5.6
2019-Dec-15 11:50 253 13 gusting 30 5.6
2019-Dec-15 11:45 249 15 gusting 28 5.6
2019-Dec-15 11:40 255 19 gusting 31 5.6
2019-Dec-15 11:30 255 19 gusting 29 5.6
2019-Dec-15 11:25 255 14 gusting 24 5.6
2019-Dec-15 11:20 249 13 gusting 25 5.6
2019-Dec-15 11:15 253 15 gusting 28 5.6
2019-Dec-15 11:10 243 18 gusting 26 5.6
2019-Dec-15 11:00 247 15 gusting 26 5.6
2019-Dec-15 10:55 239 19 gusting 27 5.6
2019-Dec-15 10:50 247 14 gusting 28 5.6
2019-Dec-15 10:45 247 17 gusting 30 5.6
2019-Dec-15 10:40 243 17 gusting 31 5.6
2019-Dec-15 10:35 253 19 gusting 27 5.6
2019-Dec-15 10:25 253 16 gusting 29 5.6
2019-Dec-15 10:20 253 19 gusting 30 5.6
2019-Dec-15 10:15 237 14 gusting 32 5.6
2019-Dec-15 10:10 255 15 gusting 32 5.6
2019-Dec-15 10:05 245 18 gusting 32 5.6
2019-Dec-15 09:55 253 16 gusting 33 6.1
2019-Dec-15 09:50 251 16 gusting 31 6.1
2019-Dec-15 09:45 241 16 gusting 31 6.1
2019-Dec-15 09:40 245 15 gusting 26 6.7
2019-Dec-15 09:31 249 15 gusting 23 6.7
2019-Dec-15 09:26 259 10 gusting 23 6.7
2019-Dec-15 09:21 251 13 gusting 24 6.7
2019-Dec-15 09:16 251 12 gusting 26 6.7
2019-Dec-15 09:11 251 12 gusting 23 6.7
2019-Dec-15 09:06 251 12 gusting 23 6.7
2019-Dec-15 09:01 245 14 gusting 26 6.7
2019-Dec-15 08:56 241 14 gusting 24 6.7
2019-Dec-15 08:51 249 15 gusting 28 6.7
2019-Dec-15 08:46 235 19 gusting 26 6.7
2019-Dec-15 08:41 247 14 gusting 26 6.7
2019-Dec-15 08:36 239 15 gusting 36 7.2
2019-Dec-15 08:31 245 19 gusting 30 7.2
2019-Dec-15 08:26 243 17 gusting 27 7.2
2019-Dec-15 08:21 239 14 gusting 25 7.2
2019-Dec-15 08:16 229 15 gusting 29 7.2
2019-Dec-15 08:12 243 19 gusting 33 7.2
2019-Dec-15 08:07 225 17 gusting 28 7.2
2019-Dec-15 08:02 237 16 gusting 27 7.2
2019-Dec-15 07:57 233 15 gusting 33 7.2
2019-Dec-15 07:52 237 16 gusting 30 7.8
2019-Dec-15 07:47 245 18 gusting 32 7.8
2019-Dec-15 07:42 235 17 gusting 32 7.8
2019-Dec-15 07:37 225 21 gusting 31 7.8
2019-Dec-15 07:32 239 19 gusting 31 7.8
2019-Dec-15 07:27 237 17 gusting 31 7.8
2019-Dec-15 07:22 239 18 gusting 32 7.8
2019-Dec-15 07:17 241 20 gusting 31 7.8
2019-Dec-15 07:12 237 16 gusting 33 7.8
2019-Dec-15 07:07 231 16 gusting 28 7.8
2019-Dec-15 07:02 227 17 gusting 29 7.8
2019-Dec-15 06:57 237 18 gusting 31 7.8
2019-Dec-15 06:52 229 15 gusting 31 8.3
2019-Dec-15 06:47 227 16 gusting 32 8.3
2019-Dec-15 06:42 243 20 gusting 32 8.3
2019-Dec-15 06:37 237 21 gusting 40 8.3
2019-Dec-15 06:32 237 18 gusting 34 8.3
2019-Dec-15 06:27 229 18 gusting 32 8.3
2019-Dec-15 06:22 235 19 gusting 38 8.3
2019-Dec-15 06:17 239 19 gusting 41 8.3
2019-Dec-15 06:12 237 17 gusting 28 8.3
2019-Dec-15 06:07 237 17 gusting 33 8.3
2019-Dec-15 06:02 235 15 gusting 30 8.3
2019-Dec-15 05:57 237 17 gusting 31 8.9
2019-Dec-15 05:52 233 11 gusting 26 8.9
2019-Dec-15 05:47 227 18 gusting 27 8.9
2019-Dec-15 05:43 227 13 gusting 26 8.9
2019-Dec-15 05:38 221 16 gusting 32 8.9
2019-Dec-15 05:33 223 15 gusting 27 8.9
2019-Dec-15 05:28 229 18 gusting 32 8.9
2019-Dec-15 05:24 233 20 gusting 37 8.9
2019-Dec-15 05:19 231 20 gusting 35 8.9
2019-Dec-15 05:14 229 17 gusting 36 8.9
2019-Dec-15 05:09 223 19 gusting 30 8.9
2019-Dec-15 05:04 223 18 gusting 34 8.9
2019-Dec-15 04:59 219 17 gusting 30 8.9
2019-Dec-15 04:54 215 19 gusting 32 8.9
2019-Dec-15 04:49 223 19 gusting 32 8.9
2019-Dec-15 04:44 219 20 gusting 30 8.9
2019-Dec-15 04:39 217 16 gusting 31 8.9
2019-Dec-15 04:34 221 16 gusting 27 8.9
2019-Dec-15 04:29 219 16 gusting 28 8.9
2019-Dec-15 04:24 223 13 gusting 28 9.4
2019-Dec-15 04:19 219 16 gusting 26 9.4
2019-Dec-15 04:14 229 18 gusting 29 9.4
2019-Dec-15 04:04 229 18 gusting 27 9.4
2019-Dec-15 03:59 221 21 gusting 32 9.4
2019-Dec-15 03:54 229 19 gusting 28 10.0
2019-Dec-15 03:49 227 16 gusting 27 10.0
2019-Dec-15 03:44 223 15 gusting 29 10.0
2019-Dec-15 03:39 231 18 gusting 31 10.0
2019-Dec-15 03:34 225 16 gusting 35 10.6
2019-Dec-15 03:29 227 16 gusting 33 10.6
2019-Dec-15 03:24 225 18 gusting 38 10.6
2019-Dec-15 03:19 225 19 gusting 34 10.6
2019-Dec-15 03:14 219 18 gusting 28 10.6
2019-Dec-15 03:09 227 13 gusting 32 11.1
2019-Dec-15 03:04 225 18 gusting 33 11.1
2019-Dec-15 02:59 227 20 gusting 41 11.1
2019-Dec-15 02:54 225 24 gusting 35 11.1
2019-Dec-15 02:49 219 15 gusting 26 11.7
2019-Dec-15 02:44 223 14 gusting 30 11.7
2019-Dec-15 02:39 227 13 gusting 31 12.2
2019-Dec-15 02:34 217 19 gusting 31 12.2
2019-Dec-15 02:29 207 18 gusting 37 12.2
2019-Dec-15 02:24 219 24 gusting 35 12.8
2019-Dec-15 02:19 213 20 gusting 32 12.8
2019-Dec-15 02:14 219 14 gusting 27 12.8
2019-Dec-15 02:09 203 18 gusting 31 12.8
2019-Dec-15 02:04 211 19 gusting 32 12.8
2019-Dec-15 01:59 215 16 gusting 33 12.8
2019-Dec-15 01:54 211 21 gusting 36 12.8
2019-Dec-15 01:49 211 21 gusting 39 12.8
2019-Dec-15 01:44 205 23 gusting 38 13.3
2019-Dec-15 01:39 203 17 gusting 31 12.8
2019-Dec-15 01:34 203 19 gusting 33 12.8
2019-Dec-15 01:29 199 21 gusting 33 13.3
2019-Dec-15 01:24 205 20 gusting 33 13.3
2019-Dec-15 01:19 207 19 gusting 36 13.3
2019-Dec-15 01:15 209 19 gusting 33 13.3
2019-Dec-15 01:10 203 19 gusting 33 13.3
2019-Dec-15 01:05 201 22 gusting 35 13.3
2019-Dec-15 01:00 197 19 gusting 33 13.3
2019-Dec-15 00:55 205 19 gusting 33 13.3
2019-Dec-15 00:50 201 18 gusting 30 13.3
2019-Dec-15 00:45 201 19 gusting 32 13.3
2019-Dec-15 00:40 203 21 gusting 36 13.3
2019-Dec-15 00:35 201 19 gusting 36 13.9
2019-Dec-15 00:30 205 18 gusting 30 13.9
2019-Dec-15 00:20 207 15 gusting 33 13.3
2019-Dec-15 00:15 209 19 gusting 33 13.3
2019-Dec-15 00:10 205 17 gusting 35 13.9
2019-Dec-14 23:58 201 20 gusting 31 13.9
2019-Dec-14 23:53 199 18 gusting 32 13.3
2019-Dec-14 23:48 199 17 gusting 28 13.3
2019-Dec-14 23:43 197 18 gusting 30 13.9
2019-Dec-14 23:38 197 22 gusting 34 13.9
2019-Dec-14 23:33 197 18 gusting 30 13.9
2019-Dec-14 23:29 203 17 gusting 33 13.9
2019-Dec-14 23:24 199 17 gusting 32 13.9
2019-Dec-14 23:19 205 13 gusting 32 13.9
2019-Dec-14 23:14 199 18 gusting 32 13.9
2019-Dec-14 23:10 195 15 gusting 32 13.9
2019-Dec-14 23:05 199 14 gusting 31 13.9
2019-Dec-14 23:00 211 17 gusting 30 13.9
2019-Dec-14 22:55 203 19 gusting 34 13.9
2019-Dec-14 22:50 201 15 gusting 33 14.4
2019-Dec-14 22:40 205 14 gusting 32 14.4
2019-Dec-14 22:35 207 13 gusting 32 14.4
2019-Dec-14 22:30 197 16 gusting 29 14.4
2019-Dec-14 22:25 197 15 gusting 29 14.4
2019-Dec-14 22:20 201 17 gusting 32 14.4
2019-Dec-14 22:15 201 17 gusting 36 13.9
2019-Dec-14 22:10 203 18 gusting 28 13.9
2019-Dec-14 22:05 205 13 gusting 26 13.3
2019-Dec-14 22:00 203 13 gusting 28 13.3
2019-Dec-14 21:54 203 14 gusting 26 13.3
2019-Dec-14 21:49 203 17 gusting 25 13.3
2019-Dec-14 21:44 203 17 gusting 25 13.3
2019-Dec-14 21:40 197 15 gusting 25 13.3
2019-Dec-14 21:35 205 14 gusting 31 13.3
2019-Dec-14 21:29 207 18 gusting 28 13.3
2019-Dec-14 21:25 209 20 gusting 29 13.9
2019-Dec-14 21:19 201 17 gusting 31 13.9
2019-Dec-14 21:09 197 15 gusting 24 13.9
2019-Dec-14 21:05 195 18 gusting 25 13.9
2019-Dec-14 21:00 201 12 gusting 26 13.3
2019-Dec-14 20:54 199 16 gusting 28 13.3
2019-Dec-14 20:50 201 13 gusting 26 13.3
2019-Dec-14 20:40 197 14 gusting 28 13.3
2019-Dec-14 20:36 197 14 gusting 28 13.3
2019-Dec-14 20:31 207 15 gusting 26 13.3
2019-Dec-14 20:25 205 14 gusting 26 13.3
2019-Dec-14 20:21 205 17 gusting 27 13.3
2019-Dec-14 20:15 203 15 gusting 25 13.3
2019-Dec-14 20:11 203 17 gusting 25 13.3
2019-Dec-14 20:06 207 15 gusting 24 13.3
2019-Dec-14 20:02 213 14 gusting 22 13.3
2019-Dec-14 19:57 209 11 gusting 19 13.3
2019-Dec-14 19:51 203 12 gusting 21 12.8
2019-Dec-14 19:46 203 13 gusting 22 12.8
2019-Dec-14 19:42 213 15 gusting 24 12.8
2019-Dec-14 19:37 213 15 gusting 24 12.8
2019-Dec-14 19:33 209 12 gusting 22 12.8
2019-Dec-14 19:27 211 12 gusting 21 12.8
2019-Dec-14 19:22 197 13 gusting 23 12.8
2019-Dec-14 19:18 201 13 gusting 22 12.8
2019-Dec-14 19:12 209 11 gusting 19 12.8
2019-Dec-14 19:08 211 10 gusting 20 12.8
2019-Dec-14 19:02 215 11 gusting 18 12.8
2019-Dec-14 18:57 205 12 gusting 17 12.8
2019-Dec-14 18:52 205 12 gusting 19 12.8
2019-Dec-14 18:47 205 13 gusting 22 12.8
2019-Dec-14 18:42 219 11 gusting 19 12.8
2019-Dec-14 18:38 211 12 gusting 18 12.8
2019-Dec-14 18:33 207 13 gusting 19 12.8
2019-Dec-14 18:29 211 12 gusting 21 12.8
2019-Dec-14 18:25 213 11 gusting 16 12.8
2019-Dec-14 18:19 205 13 gusting 23 12.8
2019-Dec-14 18:14 207 13 gusting 19 12.8
2019-Dec-14 18:09 215 12 gusting 22 12.8
2019-Dec-14 18:05 217 13 gusting 21 12.8
2019-Dec-14 18:00 219 10 gusting 21 12.8
2019-Dec-14 17:54 207 11 gusting 19 12.8
2019-Dec-14 17:50 223 11 gusting 21 12.8
2019-Dec-14 17:44 205 13 gusting 21 13.3
2019-Dec-14 17:39 207 11 gusting 25 13.3
2019-Dec-14 17:31 211 15 gusting 26 13.3
2019-Dec-14 17:25 213 18 gusting 27 12.8
2019-Dec-14 17:19 223 17 gusting 32 13.3
2019-Dec-14 17:14 213 20 gusting 31 13.3
2019-Dec-14 17:10 207 20 gusting 34 13.3
2019-Dec-14 17:05 213 21 gusting 35 13.3
2019-Dec-14 17:00 209 22 gusting 33 13.3
2019-Dec-14 16:51 207 20 gusting 34 13.9
2019-Dec-14 16:45 209 19 gusting 39 13.9
2019-Dec-14 16:41 209 19 gusting 33 13.9
2019-Dec-14 16:35 203 22 gusting 38 13.9
2019-Dec-14 16:31 203 21 gusting 37 13.9
2019-Dec-14 16:26 203 26 gusting 41 14.4
2019-Dec-14 16:20 195 22 gusting 38 14.4
2019-Dec-14 16:16 203 24 gusting 41 14.4
2019-Dec-14 16:11 195 26 gusting 39 14.4
2019-Dec-14 16:05 199 19 gusting 39 14.4
2019-Dec-14 16:00 201 29 gusting 40 14.4
2019-Dec-14 15:56 199 19 gusting 41 14.4
2019-Dec-14 15:50 197 22 gusting 42 14.4
2019-Dec-14 15:46 195 17 gusting 36 14.4
2019-Dec-14 15:40 187 22 gusting 44 13.9
2019-Dec-14 15:35 171 15 gusting 29 13.3
2019-Dec-14 15:30 159 18 gusting 28 13.3
2019-Dec-14 15:25 165 21 gusting 31 13.3
2019-Dec-14 15:21 155 16 gusting 29 12.8
2019-Dec-14 15:15 149 19 gusting 32 12.8
2019-Dec-14 15:10 151 21 gusting 32 12.8
2019-Dec-14 15:06 147 21 gusting 33 13.3
2019-Dec-14 15:00 159 22 gusting 35 13.3
2019-Dec-14 14:55 151 20 gusting 30 12.2
2019-Dec-14 14:50 137 22 gusting 33 11.7
2019-Dec-14 14:45 157 17 gusting 33 14.4
2019-Dec-14 14:41 185 16 gusting 36 14.4
2019-Dec-14 14:35 171 26 gusting 34 14.4
2019-Dec-14 14:31 171 15 gusting 34 14.4
2019-Dec-14 14:25 167 16 gusting 25 13.3
2019-Dec-14 14:21 151 14 gusting 24 13.3
2019-Dec-14 14:15 153 12 gusting 19 13.3
2019-Dec-14 14:10 165 9 gusting 20 14.4
2019-Dec-14 14:05 163 13 gusting 20 14.4
2019-Dec-14 14:01 157 11 gusting 20 13.9
2019-Dec-14 13:56 165 12 gusting 19 14.4
2019-Dec-14 13:50 161 9 gusting 19 13.9
2019-Dec-14 13:45 167 11 gusting 19 13.9
2019-Dec-14 13:41 177 12 gusting 18 13.9
2019-Dec-14 13:36 171 11 gusting 17 13.3
2019-Dec-14 13:31 169 12 gusting 17 13.3
2019-Dec-14 13:25 165 8 gusting 15 12.2
2019-Dec-14 13:20 161 10 gusting 17 12.8
2019-Dec-14 13:15 161 8 gusting 18 12.8
2019-Dec-14 13:10 163 11 gusting 20 12.2
2019-Dec-14 13:05 153 13 gusting 21 11.7
2019-Dec-14 13:00 153 13 gusting 24 11.1
2019-Dec-14 12:56 151 14 gusting 22 11.1
2019-Dec-14 12:50 147 16 gusting 22 11.1
2019-Dec-14 12:45 145 15 gusting 23 10.6
2019-Dec-14 12:41 143 17 gusting 26 11.1
2019-Dec-14 12:35 149 17 gusting 26 11.1
2019-Dec-14 12:30 147 21 gusting 28 11.1
2019-Dec-14 12:25 139 22 gusting 30 11.7
2019-Dec-14 12:20 151 20 gusting 35 12.2
2019-Dec-14 12:15 149 22 gusting 32 12.2
2019-Dec-14 12:10 157 19 gusting 32 11.7
2019-Dec-14 12:05 147 19 gusting 31 11.7
2019-Dec-14 12:00 153 22 gusting 33 11.1
2019-Dec-14 11:56 153 19 gusting 30 10.6
2019-Dec-14 11:50 149 16 gusting 26 10.6
2019-Dec-14 11:45 145 20 gusting 30 10.6
2019-Dec-14 11:40 141 25 gusting 33 10.6
2019-Dec-14 11:36 139 26 gusting 31 10.6
2019-Dec-14 11:31 141 23 gusting 37 10.0
2019-Dec-14 11:26 137 25 gusting 36 10.6
2019-Dec-14 11:21 141 26 gusting 52 10.6
2019-Dec-14 10:57 125 24 gusting 31 10.0
2019-Dec-14 10:51 115 19 gusting 26 10.0
2019-Dec-14 10:47 119 20 gusting 31 10.0
2019-Dec-14 10:42 115 25 gusting 37 10.0
2019-Dec-14 10:37 115 28 gusting 40 10.0
2019-Dec-14 10:32 115 30 gusting 40 9.4
2019-Dec-14 10:26 117 32 gusting 44 10.0
2019-Dec-14 10:22 115 31 gusting 42 10.0
2019-Dec-14 10:17 115 32 gusting 43 10.0
2019-Dec-14 10:12 115 32 gusting 42 10.0
2019-Dec-14 10:07 113 33 gusting 42 10.0
2019-Dec-14 10:01 115 31 gusting 43 10.0
2019-Dec-14 09:56 113 32 gusting 42 10.0
2019-Dec-14 09:51 115 33 gusting 44 10.0
2019-Dec-14 09:47 113 33 gusting 46 10.0
2019-Dec-14 09:41 113 31 gusting 46 10.0
2019-Dec-14 09:37 115 32 gusting 46 10.0
2019-Dec-14 09:32 113 33 gusting 51 10.0
2019-Dec-14 09:26 113 34 gusting 46 10.0
2019-Dec-14 09:22 115 33 gusting 46 10.0
2019-Dec-14 09:01 113 30 gusting 43 9.4
2019-Dec-14 08:52 115 31 gusting 39 9.4
2019-Dec-14 08:46 111 30 gusting 39 9.4
2019-Dec-14 08:41 113 29 gusting 42 9.4
2019-Dec-14 08:36 113 30 gusting 40 9.4
2019-Dec-14 08:31 111 28 gusting 40 9.4
2019-Dec-14 08:27 111 28 gusting 40 9.4
2019-Dec-14 08:21 111 26 gusting 38 9.4
2019-Dec-14 08:16 109 27 gusting 38 9.4
2019-Dec-14 08:11 111 29 gusting 40 9.4
2019-Dec-14 08:07 113 30 gusting 43 9.4
2019-Dec-14 08:01 111 28 gusting 39 9.4
2019-Dec-14 07:55 113 21 gusting 33 9.4
2019-Dec-14 07:45 105 25 gusting 33 8.9
2019-Dec-14 07:40 103 24 gusting 31 8.9
2019-Dec-14 07:35 105 23 gusting 30 8.9
2019-Dec-14 07:31 105 23 gusting 31 8.9
2019-Dec-14 07:26 109 24 gusting 31 8.9
2019-Dec-14 07:21 113 24 gusting 33 8.9
2019-Dec-14 07:16 113 25 gusting 33 8.9
2019-Dec-14 07:11 113 25 gusting 34 8.9
2019-Dec-14 07:07 113 25 gusting 36 8.9
2019-Dec-14 07:01 113 24 gusting 30 8.9
2019-Dec-14 06:56 111 22 gusting 31 8.9
2019-Dec-14 06:51 111 21 gusting 29 8.9
2019-Dec-14 06:46 115 21 gusting 27 8.9
2019-Dec-14 06:41 115 20 gusting 26 8.9
2019-Dec-14 06:37 115 18 gusting 24 8.9
2019-Dec-14 06:32 115 17 gusting 23 8.9
2019-Dec-14 06:27 117 17 gusting 22 8.9
2019-Dec-14 06:22 115 17 gusting 23 8.9
2019-Dec-14 06:17 117 18 gusting 24 8.9
2019-Dec-14 06:12 119 19 gusting 24 8.9
2019-Dec-14 06:07 117 18 gusting 26 8.9
2019-Dec-14 06:02 121 18 gusting 23 8.9
2019-Dec-14 05:57 117 19 gusting 24 8.9
2019-Dec-14 05:52 117 19 gusting 26 8.9
2019-Dec-14 05:47 115 17 gusting 23 8.9
2019-Dec-14 05:42 115 18 gusting 25 8.9
2019-Dec-14 05:37 115 18 gusting 24 8.9
2019-Dec-14 05:33 115 18 gusting 24 8.9
2019-Dec-14 05:27 113 18 gusting 22 8.9
2019-Dec-14 05:22 113 17 gusting 23 8.9
2019-Dec-14 05:17 115 17 gusting 24 8.9
2019-Dec-14 05:13 115 16 gusting 21 8.3
2019-Dec-14 05:07 117 17 gusting 20 8.9
2019-Dec-14 05:03 115 16 gusting 21 8.3
2019-Dec-14 04:58 117 16 gusting 21 8.9
2019-Dec-14 04:53 115 17 gusting 24 8.9
2019-Dec-14 04:48 113 17 gusting 23 8.3
2019-Dec-14 04:42 115 17 gusting 23 8.3
2019-Dec-14 04:37 117 17 gusting 22 8.3
2019-Dec-14 04:32 119 17 gusting 22 8.3
2019-Dec-14 04:27 125 18 gusting 21 8.3
2019-Dec-14 04:22 127 17 gusting 21 8.9
2019-Dec-14 04:17 133 17 gusting 22 8.3
2019-Dec-14 04:12 123 18 gusting 22 8.3
2019-Dec-14 04:07 123 18 gusting 21 8.3
2019-Dec-14 04:02 123 17 gusting 24 8.3
2019-Dec-14 03:57 117 17 gusting 21 8.3
2019-Dec-14 03:53 117 17 gusting 20 8.3
2019-Dec-14 03:48 119 16 gusting 22 8.3
2019-Dec-14 03:43 121 17 gusting 22 8.3
2019-Dec-14 03:38 121 18 gusting 23 8.3
2019-Dec-14 03:33 123 19 gusting 22 8.3
2019-Dec-14 03:28 133 17 gusting 20 8.3
2019-Dec-14 03:23 133 16 gusting 20 8.3
2019-Dec-14 03:18 131 18 gusting 22 8.3
2019-Dec-14 03:13 133 18 gusting 21 8.3
2019-Dec-14 03:08 135 17 gusting 21 8.9
2019-Dec-14 03:03 141 17 gusting 21 8.9
2019-Dec-14 02:58 141 17 gusting 20 8.9
2019-Dec-14 02:54 139 17 gusting 19 8.9
2019-Dec-14 02:48 139 16 gusting 20 8.9
2019-Dec-14 02:43 141 17 gusting 21 8.9
2019-Dec-14 02:38 141 16 gusting 20 8.9
2019-Dec-14 02:34 143 18 gusting 20 8.9
2019-Dec-14 02:29 143 17 gusting 21 8.9
2019-Dec-14 02:24 145 17 gusting 21 8.9
2019-Dec-14 02:19 143 18 gusting 21 8.9
2019-Dec-14 02:09 143 16 gusting 20 8.9
2019-Dec-14 02:04 145 16 gusting 19 8.9
2019-Dec-14 01:59 145 14 gusting 19 8.9
2019-Dec-14 01:54 139 15 gusting 19 8.9
2019-Dec-14 01:49 139 14 gusting 19 8.3
2019-Dec-14 01:44 141 13 gusting 18 8.3
2019-Dec-14 01:39 139 15 gusting 19 8.3
2019-Dec-14 01:34 145 13 gusting 18 8.3
2019-Dec-14 01:29 145 13 gusting 17 8.3
2019-Dec-14 01:24 147 11 gusting 16 8.3
2019-Dec-14 01:19 143 10 gusting 14 8.3
2019-Dec-14 01:14 147 10 gusting 16 8.3
2019-Dec-14 01:09 151 10 gusting 14 7.8
2019-Dec-14 01:04 143 11 gusting 14 7.8
2019-Dec-14 00:59 147 13 gusting 15 7.8
2019-Dec-14 00:54 153 12 gusting 13 7.8
2019-Dec-14 00:49 149 12 gusting 13 7.8
2019-Dec-14 00:44 147 10 gusting 13 7.8
2019-Dec-14 00:39 145 9 gusting 12 7.8
2019-Dec-14 00:34 143 11 gusting 13 7.8
2019-Dec-14 00:30 143 10 gusting 13 7.8
2019-Dec-14 00:20 125 10 gusting 13 7.8
2019-Dec-14 00:15 129 12 gusting 15 7.8
2019-Dec-14 00:10 127 13 gusting 15 7.8
2019-Dec-13 23:59 123 13 gusting 16 7.2
2019-Dec-13 23:53 115 13 gusting 16 7.2
2019-Dec-13 23:49 115 13 gusting 18 7.2
2019-Dec-13 23:43 117 13 gusting 17 7.2
2019-Dec-13 23:38 117 13 gusting 16 7.2
2019-Dec-13 23:33 117 13 gusting 16 7.2
2019-Dec-13 23:28 121 13 gusting 16 7.2
2019-Dec-13 23:23 119 13 gusting 15 7.2
2019-Dec-13 23:19 119 12 gusting 13 7.2
2019-Dec-13 23:14 119 11 gusting 13 7.2
2019-Dec-13 23:09 119 10 gusting 14 7.2
2019-Dec-13 23:03 121 11 gusting 14 7.2
2019-Dec-13 22:58 119 9 gusting 12 7.2
2019-Dec-13 22:53 121 9 gusting 12 7.2
2019-Dec-13 22:48 121 9 gusting 12 7.2
2019-Dec-13 22:43 121 9 gusting 11 7.2
2019-Dec-13 22:38 117 8 gusting 11 7.2
2019-Dec-13 22:33 117 8 gusting 10 7.2
2019-Dec-13 22:28 117 7 gusting 11 7.2
2019-Dec-13 22:23 123 7 gusting 8 7.2
2019-Dec-13 22:18 131 6 gusting 9 7.2
2019-Dec-13 22:13 133 7 gusting 9 7.2
2019-Dec-13 22:08 133 8 gusting 10 7.2
2019-Dec-13 22:03 137 9 gusting 11 7.2
2019-Dec-13 21:58 137 9 gusting 11 7.2
2019-Dec-13 21:53 139 9 gusting 12 7.2
2019-Dec-13 21:49 135 10 gusting 12 7.2
2019-Dec-13 21:44 133 10 gusting 12 7.2
2019-Dec-13 21:39 135 10 gusting 12 7.2
2019-Dec-13 21:34 139 10 gusting 12 7.2
2019-Dec-13 21:29 133 10 gusting 13 7.2
2019-Dec-13 21:24 129 12 gusting 14 7.2
2019-Dec-13 21:19 127 12 gusting 13 7.2
2019-Dec-13 21:14 131 13 gusting 13 7.2
2019-Dec-13 21:10 123 11 gusting 13 7.2
2019-Dec-13 21:04 127 11 gusting 13 7.2